Location: Champs
(48.8539°N, 2.6040°E)
Time: 11:56:22
(UTC+00:00)

COSMOS 2455 - Pass Details

Date: 26 October 2021
Orbit: 898 x 911 km, 67.1° (Epoch: 07 December)

Event Time Altitude Azimuth Distance (km) Brightness Sun altitude
Exits shadow 03:26:19 56° 359° (N) 1,073 3.2 -30.1°
Drops below altitude 10° 03:31:17 10° 32° (NNE) 2,604 5.8 -29.3°
Sets 03:33:50 0° 35° (NE) 3,550 6.6 -28.9°
